SJ-11-01 - Orbit

View from above orbital plane
View from above orbital plane
View from above satellite
View from above satellite

Ground track
Ground track

The orbit data is extracted from the following two-line orbital elements,

1 36088U 09061A   13145.10427550  .00000588  00000-0  13280-3 0  9425
2 36088 098.0906 198.9204 0010029 209.8220 150.2423 14.59691411188114
Epoch (UTC): 25 May 2013 02:30:09
Eccentricity: 0.0010029
inclination: 98.0906°
perigee height: 687 km
apogee height: 701 km
right ascension of ascending node: 198.9204°
argument of perigee: 209.8220°
revolutions per day: 14.59691411
mean anomaly at epoch: 150.2423°
orbit number at epoch: 18811

The dashed part of the orbit path shows where the satellite is in the earth's shadow,  

Developed and maintained by Chris Peat, Heavens-Above GmbH. Please read the updated FAQ before sending e-mail. Imprint. DLR